Location: Unspecified
(0.0000°N, 0.0000°E)
Time: 13:25:22
(UTC+00:00)

Explorer 11/Cluster Stage 4 - All Passes

Search period start: 01 August 2021 00:00
Search period end: 11 August 2021 00:00
Orbit: 467 x 1257 km, 28.8° (Epoch: 01 August)

Date Brightness Start Highest point End Pass type
(mag) Time Alt. Az. Time Alt. Az. Time Alt. Az.
01 Aug - 02:35:22 10° S 02:37:19 12° SSE 02:39:23 10° SE visible
01 Aug - 04:20:19 10° SW 04:25:55 55° SSE 04:32:51 10° ENE visible
01 Aug - 06:08:48 10° W 06:15:02 43° NNW 06:22:22 10° NE daylight
01 Aug - 08:00:44 10° NW 08:05:08 16° NNW 08:09:45 10° NNE daylight
01 Aug - 13:37:53 10° N 13:39:22 11° NNE 13:40:49 10° NNE daylight
01 Aug - 15:23:46 10° NW 15:29:22 30° NNE 15:34:01 10° E daylight
01 Aug - 17:12:38 10° WNW 17:18:11 62° SSW 17:22:38 10° SE daylight
02 Aug - 02:23:46 10° S 02:26:16 14° SSE 02:29:00 10° ESE visible
02 Aug - 04:09:18 10° SW 04:14:44 65° SSE 04:21:36 10° ENE visible
02 Aug - 05:58:03 10° W 06:03:54 36° NNW 06:10:47 10° NE daylight
02 Aug - 07:50:36 10° NW 07:54:06 14° NNW 07:57:46 10° N daylight
02 Aug - 13:25:09 10° N 13:28:25 13° NNE 13:31:28 10° NE daylight
02 Aug - 15:12:08 10° NW 15:18:20 37° NNE 15:23:25 10° E daylight
02 Aug - 17:01:27 10° WNW 17:07:07 50° SSW 17:11:38 10° SE daylight
03 Aug - 02:12:20 10° S 02:15:12 16° SSE 02:18:24 10° ESE visible
03 Aug - 03:58:18 10° SW 04:03:35 79° SSE 04:10:17 10° ENE visible
03 Aug - 05:47:23 10° W 05:52:47 30° NNW 05:59:07 10° NNE daylight
03 Aug - 07:40:52 10° NW 07:43:06 11° NNW 07:45:25 10° N daylight
03 Aug - 13:13:02 10° NNW 13:17:26 16° NNE 13:21:28 10° NE daylight
03 Aug - 15:00:33 10° NW 15:07:16 46° NNE 15:12:42 10° E daylight
03 Aug - 16:50:18 10° WNW 16:56:00 41° SSW 17:00:37 10° SE daylight
04 Aug - 02:01:01 10° S 02:04:08 18° SSE 02:07:42 10° ESE night (unlit)
04 Aug - 03:47:24 10° WSW 03:52:28 86° NNW 03:58:56 10° ENE visible
04 Aug - 05:36:52 10° WNW 05:41:44 25° NNW 05:47:24 10° NNE visible
04 Aug - 13:01:07 10° NNW 13:06:24 19° NNE 13:11:12 10° ENE daylight
04 Aug - 14:49:02 10° NW 14:56:09 57° NNE 15:01:56 10° ESE daylight
04 Aug - 16:39:11 10° W 16:44:52 35° SSW 16:49:32 10° SSE daylight
05 Aug - 01:49:46 10° SSW 01:53:06 21° SSE 01:56:55 10° E night (unlit)
05 Aug - 03:36:32 10° WSW 03:41:23 69° NNW 03:47:32 10° NE visible
05 Aug - 05:26:27 10° WNW 05:30:43 20° NNW 05:35:36 10° NNE visible
05 Aug - 12:49:19 10° NNW 12:55:19 23° NNE 13:00:46 10° ENE daylight
05 Aug - 14:37:32 10° NW 14:45:00 69° NNE 14:51:04 10° ESE daylight
05 Aug - 16:28:07 10° W 16:33:45 30° SSW 16:38:24 10° SSE daylight
06 Aug - 01:38:35 10° SSW 01:42:02 25° SSE 01:46:04 10° E night (unlit)
06 Aug - 03:25:45 10° WSW 03:30:20 54° NNW 03:36:08 10° NE visible
06 Aug - 05:16:14 10° WNW 05:19:45 16° NNW 05:23:40 10° NNE visible
06 Aug - 10:52:21 10° N 10:53:37 10° NNE 10:54:54 10° NNE daylight
06 Aug - 12:37:37 10° NNW 12:44:12 27° NNE 12:50:11 10° E daylight
06 Aug - 14:26:06 10° WNW 14:33:49 81° NNE 14:40:08 10° ESE daylight
06 Aug - 16:17:07 10° W 16:22:35 26° SSW 16:27:13 10° SSE daylight
07 Aug - 01:27:27 10° SSW 01:31:00 31° SSE 01:35:09 10° E night (unlit)
07 Aug - 03:15:02 10° W 03:19:20 42° NNW 03:24:40 10° NE visible
07 Aug - 05:06:21 10° NW 05:08:48 13° NNW 05:11:28 10° N visible
07 Aug - 10:39:45 10° N 10:42:37 12° NNE 10:45:28 10° NE daylight
07 Aug - 12:25:58 10° NNW 12:33:02 32° NNE 12:39:30 10° E daylight
07 Aug - 14:14:42 10° WNW 14:22:35 86° SSW 14:29:08 10° ESE daylight
07 Aug - 16:06:10 10° W 16:11:26 23° SSW 16:15:58 10° SSE daylight
08 Aug - 01:16:22 10° SW 01:19:59 38° SSE 01:24:12 10° E night (unlit)
08 Aug - 03:04:23 10° W 03:08:22 32° NNW 03:13:09 10° NE visible
08 Aug - 10:27:45 10° N 10:31:34 14° NNE 10:35:23 10° NE daylight
08 Aug - 12:14:23 10° NW 12:21:51 37° NNE 12:28:43 10° E daylight
08 Aug - 14:03:21 10° WNW 14:11:20 74° SSW 14:18:04 10° SE daylight
08 Aug - 15:55:17 10° WSW 16:00:17 20° SSW 16:04:41 10° SSE daylight
09 Aug - 01:05:20 10° SW 01:08:58 50° SSE 01:13:11 10° ENE night (unlit)
09 Aug - 02:53:51 10° W 02:57:25 25° NNW 03:01:34 10° NNE visible
09 Aug - 10:15:57 10° NNW 10:20:29 16° NNE 10:25:03 10° ENE daylight
09 Aug - 12:02:51 10° NW 12:10:36 43° NNE 12:17:50 10° E daylight
09 Aug - 13:52:04 10° WNW 14:00:04 64° SSW 14:06:57 10° SE daylight
09 Aug - 15:44:29 10° WSW 15:49:09 18° SSW 15:53:20 10° S daylight
10 Aug - 00:54:20 10° SW 00:58:00 67° SSE 01:02:09 10° ENE night (unlit)
10 Aug - 02:43:28 10° WNW 02:46:29 19° NNW 02:49:54 10° NNE visible
10 Aug - 10:04:16 10° NNW 10:09:22 18° NNE 10:14:35 10° ENE daylight
10 Aug - 11:51:23 10° NW 11:59:19 51° NNE 12:06:53 10° ESE daylight
10 Aug - 13:40:50 10° WNW 13:48:46 55° SSW 13:55:47 10° SE daylight
10 Aug - 15:33:47 10° WSW 15:38:02 16° SSW 15:41:54 10° S daylight
10 Aug - 22:57:45 10° S 22:58:51 11° SSE 22:59:58 10° SE night (unlit)
